Baker, OR

12:27 PM PDT on June 23, 2017 (GMT -0700)
Baker City Municipal

Weather History for KBKE - December, 2012

Change the Weather History Date:

Monday, December 17, 2012

  Actual Average Record
Temperature  
Mean Temperature 30 °F 24 °F  
Max Temperature 43 °F 33 °F 48 °F (1976)
Min Temperature 16 °F 15 °F -22 °F (1964)
Degree Days  
Heating Degree Days 35 41  
Month to date heating degree days 582 672  
Since 1 July heating degree days 2385 2709  
Cooling Degree Days 0 0  
Month to date cooling degree days 0 0  
Year to date cooling degree days 184 169  
Moisture  
Dew Point 23 °F    
Average Humidity 66    
Maximum Humidity 91    
Minimum Humidity 41    
Precipitation  
Precipitation 0.01 in 0.03 in 0.29 in (1961)
Month to date precipitation 0.88 0.53  
Year to date precipitation 8.32 9.68  
Sea Level Pressure  
Sea Level Pressure 29.64 in    
Wind  
Wind Speed 11 mph (South)    
Max Wind Speed 35 mph    
Max Gust Speed 47 mph    
Visibility 10 miles    
Events Rain    
T = Trace of Precipitation, MM = Missing Value Source: NWS Daily Summary

Daily Weather History Graph

Daily Weather History Graph

Search for Another Location

Airport or City:

Trip Planner

Search our weather history database for the weather conditions in past years. The results will help you decide how hot, cold, wet, or windy it might be!

Date:

Astronomy

Dec. 17, 2012 Rise Set
Actual Time 7:23 AM PST 4:11 PM PST
Civil Twilight 6:50 AM PST 4:45 PM PST
Nautical Twilight 6:12 AM PST 5:22 PM PST
Astronomical Twilight 5:37 AM PST 5:58 PM PST
Moon 10:24 AM PST (12/17) 9:50 PM PST (12/17)
Length of Visible Light 9h 55m
Length of Day
8h 47m
Waxing Crescent, 26% of the Moon is Illuminated
Dec 17
Waxing Crescent
Dec 19
First Quarter
Dec 28
Full
Jan 4
Last Quarter
Jan 11
New

Hourly Weather History & Observations

Time (PST) Temp. Windchill Dew Point Humidity Pressure Visibility Wind Dir Wind Speed Gust Speed Precip Events Conditions
12:24 AM 37.4 °F 28.2 °F 32.0 °F 81% 29.36 in 10.0 mi South 16.1 mph 21.9 mph 0.00 in Rain Light Rain
12:35 AM 37.4 °F 29.8 °F 32.0 °F 81% 29.36 in 10.0 mi SE 11.5 mph - 0.01 in Rain Light Rain
12:53 AM 37.0 °F 32.4 °F 32.0 °F 82% 29.42 in 10.0 mi ESE 5.8 mph - 0.01 in   Overcast
1:53 AM 39.9 °F 31.1 °F 28.9 °F 65% 29.41 in 10.0 mi South 17.3 mph 25.3 mph N/A   Partly Cloudy
2:53 AM 37.0 °F 28.9 °F 30.0 °F 76% 29.42 in 10.0 mi SE 12.7 mph - 0.00 in   Scattered Clouds
3:53 AM 37.9 °F 29.2 °F 28.9 °F 70% 29.42 in 10.0 mi South 15.0 mph - N/A   Mostly Cloudy
4:53 AM 41.0 °F 30.0 °F 27.0 °F 57% 29.42 in 10.0 mi SW 28.8 mph 36.8 mph 0.00 in   Partly Cloudy
5:53 AM 37.9 °F 29.2 °F 27.0 °F 65% 29.46 in 10.0 mi SW 15.0 mph 29.9 mph N/A   Clear
6:53 AM 39.9 °F 33.4 °F 24.1 °F 53% 29.48 in 10.0 mi NE 10.4 mph - N/A   Mostly Cloudy
7:53 AM 39.9 °F 34.5 °F 21.9 °F 49% 29.53 in 10.0 mi SW 8.1 mph - 0.00 in   Overcast
8:53 AM 41.0 °F 34.7 °F 19.0 °F 41% 29.56 in 10.0 mi WNW 10.4 mph 18.4 mph 0.00 in   Overcast
9:53 AM 39.9 °F 34.5 °F 19.9 °F 45% 29.60 in 10.0 mi SW 8.1 mph - 0.00 in   Mostly Cloudy
10:53 AM 39.0 °F 32.3 °F 21.0 °F 49% 29.65 in 10.0 mi SW 10.4 mph - N/A   Overcast
11:53 AM 36.0 °F 24.7 °F 23.0 °F 59% 29.69 in 10.0 mi SW 21.9 mph 27.6 mph N/A   Scattered Clouds
12:42 PM 35.6 °F 26.2 °F 23.0 °F 60% 29.65 in 10.0 mi West 15.0 mph 25.3 mph N/A   Partly Cloudy
12:53 PM 34.0 °F 25.0 °F 25.0 °F 70% 29.71 in 10.0 mi West 12.7 mph 24.2 mph N/A   Scattered Clouds
1:53 PM 35.1 °F 25.5 °F 21.9 °F 59% 29.71 in 10.0 mi SW 15.0 mph - N/A   Scattered Clouds
4:53 PM 30.0 °F 21.1 °F 19.0 °F 64% 29.80 in 10.0 mi SW 10.4 mph - N/A   Scattered Clouds
5:53 PM 25.0 °F 18.1 °F 19.0 °F 78% 29.85 in 10.0 mi NNE 5.8 mph - N/A   Partly Cloudy
6:53 PM 19.9 °F 10.1 °F 17.1 °F 89% 29.87 in 10.0 mi East 8.1 mph - N/A   Clear
7:53 PM 24.1 °F 17.0 °F 18.0 °F 77% 29.89 in 10.0 mi East 5.8 mph - N/A   Partly Cloudy
8:53 PM 21.0 °F 12.4 °F 17.1 °F 85% 29.91 in 10.0 mi East 6.9 mph - N/A   Scattered Clouds
9:53 PM 21.0 °F 14.6 °F 15.1 °F 78% 29.93 in 10.0 mi NE 4.6 mph - N/A   Partly Cloudy
10:53 PM 18.0 °F 11.1 °F 12.0 °F 78% 29.95 in 10.0 mi SE 4.6 mph - N/A   Clear
11:53 PM 18.0 °F - 10.0 °F 71% 29.96 in 10.0 mi Calm Calm - N/A   Clear